Newberry, MI

1:51 PM EDT on July 25, 2017 (GMT -0400)
Luce County

Weather History for KERY - December, 2012

Change the Weather History Date:

Thursday, December 6, 2012

  Actual Average Record
Temperature  
Mean Temperature 34 °F -  
Max Temperature 37 °F 31 °F 51 °F (1998)
Min Temperature 30 °F 17 °F -10 °F (1964)
Degree Days  
Heating Degree Days 32    
Moisture  
Dew Point 32 °F    
Average Humidity 89    
Maximum Humidity 100    
Minimum Humidity 80    
Precipitation  
Precipitation 0.00 in - - ()
Sea Level Pressure  
Sea Level Pressure 29.95 in    
Wind  
Wind Speed 13 mph (South)    
Max Wind Speed 21 mph    
Max Gust Speed 28 mph    
Visibility 7 miles    
Events Rain , Snow    
Averages and records for this station are not official NWS values.
T = Trace of Precipitation, MM = Missing Value Source: NWS Daily Summary

Daily Weather History Graph

Daily Weather History Graph

Search for Another Location

Airport or City:

Trip Planner

Search our weather history database for the weather conditions in past years. The results will help you decide how hot, cold, wet, or windy it might be!

Date:

Astronomy

Dec. 06, 2012 Rise Set
Actual Time 8:10 AM EST 4:55 PM EST
Civil Twilight 7:36 AM EST 5:30 PM EST
Nautical Twilight 6:58 AM EST 6:07 PM EST
Astronomical Twilight 6:21 AM EST 6:44 PM EST
Moon 12:02 AM EST (12/6) 12:42 PM EST (12/6)
Length of Visible Light 9h 54m
Length of Day
8h 45m
Waning Gibbous, 49% of the Moon is Illuminated
Dec 6
Waning Gibbous
Dec 13
New
Dec 20
First Quarter
Dec 28
Full
Jan 4
Last Quarter

Hourly Weather History & Observations

Time (EST) Temp. Windchill Dew Point Humidity Pressure Visibility Wind Dir Wind Speed Gust Speed Precip Events Conditions
12:15 AM 30.2 °F 21.3 °F 26.6 °F 86% 30.20 in 10.0 mi South 10.4 mph 17.3 mph N/A   Scattered Clouds
12:35 AM 30.2 °F 20.8 °F 26.6 °F 86% 30.20 in 10.0 mi South 11.5 mph - N/A   Mostly Cloudy
12:54 AM 30.2 °F 21.3 °F 26.6 °F 86% 30.20 in 10.0 mi South 10.4 mph 18.4 mph N/A   Mostly Cloudy
1:15 AM 32.0 °F 22.5 °F 26.6 °F 80% 30.19 in 10.0 mi South 12.7 mph 19.6 mph N/A   Scattered Clouds
1:34 AM 32.0 °F 22.5 °F 26.6 °F 80% 30.19 in 10.0 mi South 12.7 mph 17.3 mph N/A   Scattered Clouds
1:55 AM 32.0 °F 23.0 °F 26.6 °F 80% 30.18 in 10.0 mi South 11.5 mph 17.3 mph N/A   Scattered Clouds
2:15 AM 32.0 °F 22.5 °F 28.4 °F 87% 30.18 in 10.0 mi South 12.7 mph 17.3 mph N/A   Overcast
2:34 AM 33.8 °F 25.3 °F 28.4 °F 81% 30.17 in 10.0 mi South 11.5 mph 16.1 mph N/A   Mostly Cloudy
2:55 AM 33.8 °F 24.3 °F 28.4 °F 81% 30.15 in 10.0 mi South 13.8 mph 20.7 mph N/A   Overcast
3:15 AM 33.8 °F 24.8 °F 28.4 °F 81% 30.15 in 10.0 mi South 12.7 mph 20.7 mph N/A   Overcast
3:35 AM 33.8 °F 22.8 °F 28.4 °F 81% 30.15 in 10.0 mi South 18.4 mph 23.0 mph N/A   Overcast
3:55 AM 33.8 °F 23.5 °F 28.4 °F 81% 30.13 in 10.0 mi South 16.1 mph 21.9 mph N/A   Overcast
4:14 AM 33.8 °F 23.5 °F 28.4 °F 81% 30.12 in 10.0 mi South 16.1 mph 20.7 mph N/A   Overcast
4:35 AM 33.8 °F 24.8 °F 28.4 °F 81% 30.12 in 10.0 mi South 12.7 mph 24.2 mph N/A   Overcast
4:55 AM 33.8 °F 23.9 °F 30.2 °F 87% 30.12 in 10.0 mi South 15.0 mph 20.7 mph N/A   Overcast
5:14 AM 33.8 °F 24.3 °F 30.2 °F 87% 30.11 in 10.0 mi SSE 13.8 mph - N/A   Mostly Cloudy
5:35 AM 33.8 °F 24.3 °F 30.2 °F 87% 30.11 in 10.0 mi South 13.8 mph - N/A   Overcast
5:54 AM 33.8 °F 24.3 °F 30.2 °F 87% 30.10 in 10.0 mi South 13.8 mph - N/A   Overcast
6:15 AM 33.8 °F 23.5 °F 28.4 °F 81% 30.08 in 10.0 mi SSE 16.1 mph - N/A   Overcast
6:35 AM 33.8 °F 24.3 °F 28.4 °F 81% 30.08 in 10.0 mi South 13.8 mph 19.6 mph N/A   Overcast
6:54 AM 33.8 °F 24.3 °F 28.4 °F 81% 30.07 in 10.0 mi South 13.8 mph 19.6 mph N/A   Overcast
7:15 AM 33.8 °F 23.2 °F 28.4 °F 81% 30.06 in 10.0 mi South 17.3 mph 21.9 mph N/A   Overcast
7:35 AM 33.8 °F 23.5 °F 28.4 °F 81% 30.04 in 10.0 mi SSE 16.1 mph 21.9 mph N/A   Overcast
7:54 AM 33.8 °F 23.2 °F 28.4 °F 81% 30.03 in 10.0 mi South 17.3 mph 27.6 mph N/A   Overcast
8:15 AM 33.8 °F 23.9 °F 30.2 °F 87% 30.03 in 10.0 mi South 15.0 mph 25.3 mph N/A   Overcast
8:35 AM 33.8 °F 23.9 °F 30.2 °F 87% 30.02 in 10.0 mi South 15.0 mph 26.5 mph N/A   Overcast
8:54 AM 33.8 °F 23.2 °F 28.4 °F 81% 30.01 in 10.0 mi SSE 17.3 mph 25.3 mph N/A   Overcast
9:15 AM 33.8 °F 22.8 °F 30.2 °F 87% 30.01 in 7.0 mi South 18.4 mph 24.2 mph N/A Snow Light Snow
9:34 AM 33.8 °F 24.3 °F 30.2 °F 87% 30.00 in 10.0 mi South 13.8 mph 20.7 mph N/A   Mostly Cloudy
9:55 AM 33.8 °F 23.5 °F 30.2 °F 87% 29.98 in 10.0 mi South 16.1 mph 27.6 mph N/A   Mostly Cloudy
10:15 AM 33.8 °F 23.2 °F 30.2 °F 87% 29.98 in 3.0 mi South 17.3 mph 24.2 mph N/A Snow Light Snow
10:34 AM 33.8 °F 23.2 °F 30.2 °F 87% 29.97 in 2.5 mi SSE 17.3 mph 23.0 mph N/A Snow Light Snow
10:55 AM 33.8 °F 22.8 °F 30.2 °F 87% 29.97 in 5.0 mi South 18.4 mph 23.0 mph N/A Snow Light Snow
11:15 AM 33.8 °F 24.3 °F 30.2 °F 87% 29.96 in 2.0 mi South 13.8 mph 23.0 mph N/A Snow Light Snow
11:34 AM 33.8 °F 24.3 °F 30.2 °F 87% 29.94 in 1.5 mi SSE 13.8 mph - N/A Snow Light Snow
11:55 AM 33.8 °F 23.9 °F 32.0 °F 93% 29.92 in 2.0 mi SSE 15.0 mph 24.2 mph N/A Snow Light Snow
12:15 PM 33.8 °F 24.8 °F 32.0 °F 93% 29.91 in 7.0 mi South 12.7 mph - N/A Snow Light Snow
12:34 PM 33.8 °F 23.5 °F 30.2 °F 87% 29.90 in 4.0 mi South 16.1 mph 21.9 mph N/A Snow Light Snow
12:55 PM 33.8 °F 23.9 °F 30.2 °F 87% 29.88 in 1.5 mi SSE 15.0 mph 25.3 mph N/A Snow Light Snow
1:15 PM 33.8 °F 23.5 °F 30.2 °F 87% 29.87 in 2.5 mi South 16.1 mph 25.3 mph N/A Snow Light Snow
1:35 PM 33.8 °F 25.3 °F 32.0 °F 93% 29.86 in 5.0 mi South 11.5 mph 20.7 mph N/A Snow Light Snow
1:55 PM 33.8 °F 25.8 °F 32.0 °F 93% 29.87 in 1.5 mi South 10.4 mph - N/A Snow Light Snow
2:14 PM 33.8 °F 26.4 °F 32.0 °F 93% 29.85 in 5.0 mi South 9.2 mph - N/A Snow Light Snow
2:35 PM 33.8 °F 24.8 °F 33.8 °F 100% 29.83 in 3.0 mi South 12.7 mph 18.4 mph N/A Snow Light Snow
2:55 PM 35.6 °F 26.2 °F 33.8 °F 93% 29.83 in 10.0 mi South 15.0 mph 19.6 mph N/A Snow Light Snow
3:14 PM 35.6 °F 25.5 °F 33.8 °F 93% 29.82 in 10.0 mi South 17.3 mph 20.7 mph N/A   Overcast
3:35 PM 35.6 °F 27.5 °F 33.8 °F 93% 29.82 in 10.0 mi South 11.5 mph 18.4 mph N/A   Overcast
3:55 PM 35.6 °F 27.1 °F 33.8 °F 93% 29.82 in 5.0 mi South 12.7 mph - N/A   Overcast
4:14 PM 35.6 °F 26.6 °F 33.8 °F 93% 29.82 in 7.0 mi South 13.8 mph - N/A Snow Light Snow
4:35 PM 35.6 °F 27.1 °F 33.8 °F 93% 29.82 in 10.0 mi South 12.7 mph - N/A   Overcast
4:55 PM 35.6 °F 26.6 °F 35.6 °F 100% 29.81 in 5.0 mi South 13.8 mph 19.6 mph N/A   Overcast
5:15 PM 35.6 °F 25.9 °F 35.6 °F 100% 29.79 in 4.0 mi South 16.1 mph 23.0 mph N/A   Overcast
5:35 PM 37.4 °F 28.9 °F 35.6 °F 93% 29.79 in 5.0 mi South 13.8 mph 21.9 mph N/A   Overcast
5:54 PM 37.4 °F 26.9 °F 35.6 °F 93% 29.78 in 7.0 mi South 20.7 mph 25.3 mph N/A   Overcast
6:15 PM 37.4 °F 28.2 °F 35.6 °F 93% 29.78 in 7.0 mi South 16.1 mph 25.3 mph N/A   Overcast
6:34 PM 37.4 °F 28.2 °F 35.6 °F 93% 29.78 in 5.0 mi South 16.1 mph 20.7 mph N/A Rain Light Rain
6:55 PM 37.4 °F 29.3 °F 35.6 °F 93% 29.79 in 4.0 mi South 12.7 mph 19.6 mph N/A Rain Light Rain
7:15 PM 37.4 °F 30.3 °F 35.6 °F 93% 29.79 in 3.0 mi South 10.4 mph - N/A Rain Rain
7:34 PM 37.4 °F 32.1 °F 35.6 °F 93% 29.79 in 4.0 mi SSW 6.9 mph - N/A Rain Light Rain
7:55 PM 37.4 °F 27.8 °F 37.4 °F 100% 29.80 in 5.0 mi SSW 17.3 mph - N/A Rain Light Rain
8:15 PM 37.4 °F 29.3 °F 35.6 °F 93% 29.79 in 7.0 mi SW 12.7 mph 19.6 mph N/A   Overcast
8:34 PM 37.4 °F 30.8 °F 35.6 °F 93% 29.80 in 7.0 mi SW 9.2 mph - N/A   Overcast
8:55 PM 37.4 °F 31.4 °F 35.6 °F 93% 29.79 in 7.0 mi SW 8.1 mph - N/A   Overcast
9:14 PM 37.4 °F 32.1 °F 35.6 °F 93% 29.79 in 7.0 mi SSW 6.9 mph - N/A   Overcast
9:35 PM 37.4 °F 32.8 °F 35.6 °F 93% 29.79 in 5.0 mi SSW 5.8 mph - N/A   Overcast
9:54 PM 37.4 °F 32.8 °F 35.6 °F 93% 29.78 in 5.0 mi SW 5.8 mph - N/A   Overcast
10:15 PM 37.4 °F 32.8 °F 35.6 °F 93% 29.79 in 7.0 mi SW 5.8 mph - N/A   Overcast
10:35 PM 37.4 °F 31.4 °F 35.6 °F 93% 29.79 in 7.0 mi SW 8.1 mph - N/A   Overcast
10:54 PM 37.4 °F 30.8 °F 35.6 °F 93% 29.79 in 7.0 mi WSW 9.2 mph - N/A   Overcast
11:15 PM 37.4 °F 30.8 °F 35.6 °F 93% 29.80 in 5.0 mi WSW 9.2 mph - N/A   Overcast
11:34 PM 37.4 °F 30.3 °F 35.6 °F 93% 29.80 in 5.0 mi West 10.4 mph - N/A   Overcast
11:55 PM 37.4 °F 32.1 °F 35.6 °F 93% 29.81 in 5.0 mi WSW 6.9 mph - N/A   Overcast